Prescott, AZ

8:48 AM MST on December 14, 2019 (GMT -0700)
Love

Weather History for KPRC - October, 2019

Change the Weather History Date:

Saturday, October 19, 2019

  Actual Average Record
Temperature  
Mean Temperature 54 °F 55 °F  
Max Temperature 72 °F 71 °F 87 °F (2003)
Min Temperature 36 °F 40 °F 27 °F (1971)
Degree Days  
Heating Degree Days 11    
Month to date heating degree days 121  
Since 1 July heating degree days 148  
Cooling Degree Days 0    
Month to date cooling degree days 0  
Year to date cooling degree days 1130  
Growing Degree Days 4 (Base 50)    
Moisture  
Dew Point 18 °F    
Average Humidity 26    
Maximum Humidity 53    
Minimum Humidity 9    
Precipitation  
Precipitation 0.00 in 0.03 in 0.87 in (1972)
Month to date precipitation 0.00 0.60  
Year to date precipitation 10.29 11.77  
Sea Level Pressure  
Sea Level Pressure 29.86 in    
Wind  
Wind Speed 5 mph ()    
Max Wind Speed 18 mph    
Max Gust Speed 23 mph    
Visibility 9.8 miles    
Events      
T = Trace of Precipitation, MM = Missing Value Source: Averaged Metar Reports

Daily Weather History Graph

Daily Weather History Graph

Search for Another Location

Airport or City:

Astronomy

Oct. 19, 2019 Rise Set
Actual Time 6:38 AM MST 5:50 PM MST
Civil Twilight 6:12 AM MST 6:15 PM MST
Nautical Twilight 5:43 AM MST 6:45 PM MST
Astronomical Twilight 5:14 AM MST 7:14 PM MST
Moon 10:12 PM MST (10/19) 12:04 PM MST (10/19)
Length of Visible Light 12h 02m
Length of Day
11h 11m
Waning Gibbous, 68% of the Moon is Illuminated
Oct 19
Waning Gibbous
Oct 21
Last Quarter
Oct 27
New
Nov 4
First Quarter
Nov 12
Full

Hourly Weather History & Observations

Time (MST) Temp. Windchill Dew Point Humidity Pressure Visibility Wind Dir Wind Speed Gust Speed Precip Events Conditions
12:53 AM 45.0 °F 41.8 °F 21.0 °F 39% 29.87 in 9.0 mi SW 5.8 mph - N/A   Clear
1:53 AM 43.0 °F 39.5 °F 21.9 °F 43% 29.87 in 10.0 mi SSW 5.8 mph - N/A   Clear
2:53 AM 42.1 °F 38.4 °F 21.0 °F 43% 29.87 in 10.0 mi SSW 5.8 mph - N/A   Clear
3:53 AM 41.0 °F 39.0 °F 19.9 °F 43% 29.87 in 10.0 mi SSW 3.5 mph - N/A   Clear
4:53 AM 37.9 °F 34.4 °F 21.0 °F 51% 29.89 in 10.0 mi South 4.6 mph - N/A   Clear
6:53 AM 37.9 °F 32.1 °F 21.9 °F 53% 29.93 in 10.0 mi SSW 8.1 mph - N/A   Clear
7:53 AM 45.0 °F 43.5 °F 21.9 °F 40% 29.94 in 10.0 mi SW 3.5 mph - N/A   Clear
8:53 AM 52.0 °F - 19.9 °F 28% 29.94 in 10.0 mi NNE 4.6 mph - N/A   Clear
9:53 AM 57.9 °F - 19.0 °F 22% 29.94 in 10.0 mi North 5.8 mph - N/A   Clear
10:53 AM 63.0 °F - 14.0 °F 15% 29.92 in 10.0 mi Variable 3.5 mph - N/A   Clear
11:53 AM 64.9 °F - 15.1 °F 15% 29.90 in 10.0 mi Variable 3.5 mph - N/A   Clear
12:53 PM 69.1 °F - 16.0 °F 13% 29.86 in 10.0 mi Calm Calm - N/A   Clear
1:53 PM 71.1 °F - 19.0 °F 14% 29.83 in 10.0 mi Calm Calm - N/A   Clear
2:53 PM 72.0 °F - 10.9 °F 10% 29.82 in 10.0 mi South 8.1 mph 16.1 mph N/A   Clear
3:53 PM 71.1 °F - 15.1 °F 12% 29.81 in 10.0 mi SW 10.4 mph - N/A   Clear
4:53 PM 68.0 °F - 17.1 °F 14% 29.84 in 10.0 mi WSW 13.8 mph 23.0 mph N/A   Clear
5:53 PM 63.0 °F - 16.0 °F 16% 29.83 in 10.0 mi SW 11.5 mph - N/A   Clear
6:53 PM 61.0 °F - 16.0 °F 17% 29.84 in 10.0 mi SSW 11.5 mph - N/A   Clear
7:53 PM 57.9 °F - 16.0 °F 19% 29.83 in 10.0 mi South 5.8 mph - N/A   Clear
8:53 PM 55.9 °F - 17.1 °F 22% 29.82 in 10.0 mi Variable 6.9 mph - N/A   Clear
9:53 PM 55.0 °F - 19.0 °F 24% 29.81 in 10.0 mi South 5.8 mph - N/A   Clear
10:53 PM 54.0 °F - 19.9 °F 26% 29.80 in 10.0 mi South 5.8 mph - N/A   Clear
11:53 PM 53.1 °F - 21.9 °F 30% 29.78 in 7.0 mi South 9.2 mph - N/A   Clear